EW3411 Weather Reports


time (UTC)temp
F
wind
direction
speed
knots
gust
knots
rain 1hr
in
rain 24hr
in
rain mn
in
humidity
%
barometer
mb
20260507134541 46 308 6.1 13.9 0.00 1.32 0.24 86 1004.7
20260507134014 46 351 7.8 13.9 0.00 1.32 0.24 85 1004.8
20260507133514 46 317 8.7 12.2 0.00 1.32 0.24 85 1004.8
20260507133038 46 268 7.8 12.2 0.00 1.32 0.24 86 1004.9
20260507132514 45 339 6.1 10.4 0.00 1.32 0.24 87 1004.8
20260507132013 45 307 7.8 10.4 0.00 1.32 0.24 87 1004.6
20260507131540 45 312 7.0 13.9 0.00 1.32 0.24 88 1005.0
20260507131015 45 346 8.7 13.0 0.00 1.32 0.24 87 1005.1
20260507130517 45 318 7.8 13.0 0.00 1.32 0.24 87 1005.3
20260507130046 45 295 5.2 13.0 0.00 1.32 0.24 87 1005.4
20260507125519 45 330 7.0 13.0 0.00 1.32 0.24 88 1005.4
20260507125013 45 320 6.1 12.2 0.00 1.32 0.24 88 1005.4
20260507124546 45 307 7.0 12.2 0.00 1.32 0.24 87 1005.4
20260507124015 45 334 6.1 12.2 0.00 1.32 0.24 88 1005.3
20260507123514 45 322 7.8 12.2 0.00 1.32 0.24 87 1005.4
20260507123052 45 338 5.2 12.2 0.00 1.32 0.24 90 1005.4
20260507122514 44 327 6.1 11.3 0.00 1.32 0.24 88 1005.2
20260507122013 44 324 6.1 13.0 0.00 1.32 0.24 89 1005.2
20260507121543 44 322 7.0 12.2 0.00 1.32 0.24 89 1005.4
20260507121016 44 295 5.2 11.3 0.00 1.32 0.24 89 1005.4
20260507120513 44 324 7.8 11.3 0.00 1.32 0.24 89 1005.2
20260507120032 44 340 5.2 8.7 0.00 1.32 0.24 89 1005.3
20260507115509 44 335 3.5 9.6 0.00 1.32 0.24 91 1005.4
20260507115010 43 335 4.3 11.3 0.00 1.32 0.24 91 1005.4
20260507114533 43 332 6.1 11.3 0.00 1.32 0.24 90 1005.3
20260507114013 43 337 5.2 10.4 0.00 1.32 0.24 90 1005.4
20260507113514 43 301 5.2 10.4 0.00 1.32 0.24 90 1005.3
20260507113030 43 282 5.2 11.3 0.00 1.32 0.24 90 1005.3
20260507112514 43 312 5.2 11.3 0.00 1.32 0.24 90 1005.2
20260507112015 43 312 4.3 9.6 0.00 1.32 0.24 90 1005.1
20260507111523 43 305 5.2 9.6 0.00 1.32 0.24 90 1005.0
20260507111011 43 333 4.3 7.8 0.00 1.32 0.24 91 1005.0
20260507110517 43 295 3.5 8.7 0.00 1.32 0.24 91 1005.0
20260507110032 43 321 5.2 8.7 0.00 1.32 0.24 90 1004.9
20260507105512 43 312 3.5 7.8 0.00 1.32 0.24 91 1005.0
20260507105013 43 341 3.5 9.6 0.00 1.32 0.24 91 1005.0
20260507104536 42 320 3.5 9.6 0.00 1.32 0.24 91 1005.1
20260507104016 42 320 5.2 11.3 0.00 1.32 0.24 92 1005.0
20260507103511 42 318 6.1 11.3 0.00 1.32 0.24 91 1005.0
20260507103031 42 338 5.2 9.6 0.00 1.32 0.24 91 1005.0
20260507102517 42 290 5.2 8.7 0.00 1.32 0.24 91 1005.1
20260507102013 42 303 4.3 8.7 0.00 1.32 0.24 91 1005.2
20260507101539 42 309 3.5 8.7 0.00 1.32 0.24 91 1005.1
20260507101012 42 290 6.1 9.6 0.00 1.32 0.24 91 1005.0
20260507100513 43 282 5.2 9.6 0.00 1.32 0.24 90 1004.9
20260507100034 43 302 3.5 9.6 0.00 1.32 0.24 92 1004.8
20260507095514 43 328 3.5 8.7 0.00 1.33 0.24 92 1004.7
20260507095006 43 316 4.3 8.7 0.00 1.33 0.24 92 1004.5
20260507094533 43 335 4.3 7.8 0.00 1.33 0.24 93 1004.3
20260507094015 42 318 4.3 7.8 0.00 1.33 0.24 94 1004.0
20260507093513 43 305 2.6 5.2 0.00 1.33 0.24 93 1004.1
20260507093039 43 327 3.5 8.7 0.00 1.33 0.24 93 1003.9
20260507092511 43 311 6.1 8.7 0.00 1.33 0.24 93 1004.2
20260507092011 43 308 4.3 7.8 0.00 1.33 0.24 92 1004.1
20260507091519 43 331 1.7 5.2 0.00 1.33 0.24 92 1004.4
20260507091010 43 295 1.7 6.1 0.00 1.33 0.24 92 1004.5
20260507090508 43 299 3.5 8.7 0.00 1.33 0.24 91 1004.5
20260507090034 43 314 4.3 8.7 0.00 1.33 0.24 92 1004.5
20260507085509 43 303 0.0 3.5 0.00 1.33 0.24 93 1004.4
20260507085014 43 295 0.9 3.5 0.00 1.33 0.24 92 1004.4
20260507084532 43 324 0.0 2.6 0.00 1.33 0.24 92 1004.1
20260507084017 44 324 0.0 4.3 0.00 1.33 0.24 91 1004.3
20260507083511 44 324 1.7 8.7 0.00 1.33 0.24 91 1004.3
20260507083038 44 327 3.5 11.3 0.00 1.33 0.24 89 1004.4
20260507082511 44 301 6.1 11.3 0.00 1.33 0.24 90 1004.5
20260507082013 44 290 6.1 10.4 0.00 1.33 0.24 90 1004.4
20260507081534 44 331 7.0 13.0 0.00 1.33 0.24 94 1004.0
20260507081011 44 352 9.6 13.0 0.00 1.33 0.24 94 1003.9
20260507080515 44 336 8.7 13.0 0.00 1.33 0.24 92 1003.9
20260507080035 44 303 5.2 10.4 0.00 1.33 0.24 92 1003.8
20260507075511 44 303 6.1 9.6 0.00 1.35 0.24 91 1003.9
20260507075016 44 299 4.3 11.3 0.02 1.35 0.24 91 1003.8
20260507074530 44 239 4.3 11.3 0.02 1.35 0.24 91 1003.9
20260507074012 44 259 3.5 7.8 0.02 1.35 0.24 92 1003.9
20260507073515 44 282 3.5 8.7 0.02 1.35 0.24 92 1003.9
20260507073035 44 328 3.5 12.2 0.02 1.35 0.24 92 1003.9
20260507072511 44 309 8.7 12.2 0.02 1.35 0.24 92 1004.2
20260507072012 45 318 7.0 12.2 0.02 1.35 0.24 92 1003.7
20260507071553 45 312 6.1 10.4 0.03 1.35 0.24 93 1003.9
20260507071020 45 328 6.1 10.4 0.03 1.35 0.24 93 1003.8
20260507070510 45 305 7.0 10.4 0.03 1.35 0.24 94 1003.8
20260507070022 45 322 6.1 10.4 0.03 1.35 0.24 94 1003.9
20260507065517 45 295 5.2 9.6 0.04 1.35 0.24 94 1003.9
20260507065011 45 306 4.3 8.7 0.02 1.33 0.22 94 1003.9
20260507064534 45 295 4.3 7.8 0.02 1.33 0.22 94 1003.9
20260507064014 45 251 3.5 7.0 0.03 1.33 0.22 94 1003.7
20260507063513 45 309 3.5 7.8 0.04 1.33 0.22 94 1003.6
20260507063041 46 306 4.3 7.8 0.04 1.33 0.22 95 1003.5
20260507062511 46 318 3.5 7.0 0.07 1.33 0.22 95 1003.4
20260507062013 46 307 2.6 7.8 0.08 1.33 0.22 95 1003.5
20260507061537 46 234 3.5 7.8 0.07 1.32 0.21 95 1003.3
20260507061008 46 290 3.5 8.7 0.07 1.32 0.21 95 1003.3
20260507060514 46 303 5.2 8.7 0.08 1.32 0.21 95 1003.1
20260507060035 46 322 5.2 7.8 0.08 1.32 0.21 95 1002.7
20260507055513 46 342 3.5 6.1 0.08 1.31 0.19 95 1003.0
20260507055015 46 313 2.6 7.8 0.09 1.31 0.19 95 1003.4
20260507054546 46 295 4.3 7.8 0.09 1.31 0.19 95 1003.6
20260507054013 46 299 2.6 7.8 0.09 1.30 0.19 96 1003.5
20260507053515 46 321 2.6 5.2 0.08 1.29 0.18 96 1003.7
20260507053049 46 321 2.6 5.2 0.07 1.27 0.16 96 1003.8
20260507052513 46 314 0.9 7.0 0.06 1.26 0.14 96 1003.9
20260507052013 46 290 2.6 7.0 0.06 1.25 0.14 96 1003.8
20260507051549 46 315 1.7 4.3 0.07 1.25 0.14 97 1003.8
20260507051010 46 276 2.6 4.3 0.09 1.25 0.14 97 1003.4
20260507050518 46 304 2.6 5.2 0.11 1.24 0.13 96 1003.3
20260507050049 46 312 0.9 8.7 0.13 1.24 0.13 96 1003.3
20260507045510 46 331 5.2 9.6 0.14 1.23 0.12 96 1003.3
20260507045016 46 336 5.2 7.8 0.14 1.22 0.11 96 1003.5
20260507044545 46 305 5.2 7.8 0.17 1.22 0.11 96 1003.6
20260507044011 47 333 4.3 7.0 0.17 1.20 0.09 96 1003.5
20260507043512 47 337 4.3 7.0 0.18 1.20 0.09 97 1003.6
20260507043041 47 327 3.5 7.0 0.18 1.19 0.09 97 1003.6
20260507042511 47 332 2.6 7.8 0.18 1.19 0.09 97 1003.7
20260507042016 47 312 3.5 8.7 0.18 1.18 0.08 97 1003.7
20260507041541 47 325 5.2 13.0 0.17 1.17 0.07 97 1003.7
20260507041014 47 329 7.0 13.0 0.14 1.15 0.04 97 1003.8
20260507040516 47 336 5.2 9.6 0.13 1.13 0.02 97 1003.9
20260507040059 47 307 6.1 9.6 0.13 1.11 0.00 97 1004.1
20260507035513 47 305 3.5 7.8 0.12 1.07 1.07 97 1004.2
20260507035014 47 305 2.6 7.0 0.13 1.06 1.06 97 1003.8
20260507034554 47 332 3.5 8.7 0.12 1.04 1.04 96 1003.6
20260507034015 48 330 3.5 6.1 0.12 1.04 1.04 97 1003.4
20260507033510 48 326 2.6 7.0 0.12 1.03 1.03 97 1003.3
20260507033044 48 331 3.5 7.8 0.12 1.02 1.02 97 1003.2
20260507032513 48 333 4.3 7.8 0.12 1.02 1.02 97 1003.2
20260507032015 48 324 2.6 5.2 0.12 1.01 1.01 97 1003.2
20260507031539 48 330 3.5 5.2 0.13 1.01 1.01 98 1003.3
20260507031011 48 324 1.7 3.5 0.13 1.00 1.00 98 1003.2
20260507030514 48 342 0.9 3.5 0.13 1.00 1.00 97 1003.2
20260507030040 48 342 1.7 4.3 0.12 0.97 0.97 97 1003.3
20260507025515 48 343 2.6 4.3 0.11 0.97 0.96 97 1003.2
20260507025010 48 15 0.0 1.7 0.09 0.95 0.94 97 1003.3
20260507024545 48 15 0.0 1.7 0.09 0.94 0.93 97 1003.6
20260507024014 48 15 0.0 1.7 0.08 0.91 0.91 97 1003.8
20260507023514 48 342 0.0 1.7 0.08 0.91 0.91 97 1003.9
20260507023039 48 342 0.0 1.7 0.08 0.91 0.90 97 1004.0
20260507022515 48 342 0.0 3.5 0.07 0.90 0.89 97 1004.1
20260507022015 48 343 0.9 3.5 0.08 0.90 0.89 97 1004.3
20260507021538 48 341 1.7 6.1 0.07 0.89 0.88 97 1004.4
20260507021015 49 331 3.5 6.1 0.06 0.88 0.87 96 1004.3
20260507020517 49 272 1.7 4.3 0.04 0.87 0.85 97 1004.3
20260507020056 49 325 1.7 7.0 0.04 0.87 0.85 97 1004.3
20260507015516 49 328 2.6 6.1 0.04 0.85 0.85 97 1004.4
20260507015017 50 319 2.6 7.0 0.03 0.85 0.84 97 1004.3
20260507014557 50 322 2.6 7.0 0.02 0.84 0.83 97 1004.4
20260507014015 50 320 3.5 8.7 0.02 0.84 0.83 96 1004.6
20260507013514 51 315 5.2 8.7 0.02 0.84 0.83 96 1004.8
20260507013047 52 301 3.5 8.7 0.01 0.83 0.82 97 1004.8
20260507012518 53 169 1.7 7.8 0.02 0.83 0.82 98 1004.7
20260507012013 53 185 1.7 7.8 0.01 0.82 0.81 98 1004.7
20260507011535 53 177 3.5 7.8 0.01 0.82 0.81 98 1004.7
20260507011014 53 176 2.6 8.7 0.01 0.82 0.81 98 1004.8
20260507010516 53 177 3.5 8.7 0.01 0.82 0.81 98 1004.7
20260507010055 53 155 2.6 8.7 0.02 0.82 0.81 98 1004.9
20260507005515 53 180 1.7 7.0 0.02 0.87 0.81 98 1004.9
20260507005016 53 199 0.9 4.3 0.02 0.87 0.81 98 1004.9
20260507004550 53 169 0.0 4.3 0.02 0.87 0.81 98 1004.9
20260507004013 53 169 0.0 4.3 0.02 0.87 0.81 98 1004.8
20260507003521 53 166 1.7 6.1 0.02 0.87 0.81 98 1004.9
20260507003049 53 168 3.5 6.1 0.03 0.87 0.81 98 1004.8
20260507002516 53 171 2.6 6.1 0.02 0.85 0.79 98 1004.8
20260507002014 53 149 1.7 6.1 0.03 0.85 0.79 98 1004.7
20260507001606 53 175 3.5 7.0 0.03 0.85 0.79 98 1004.7
20260507001022 53 175 2.6 7.0 0.03 0.85 0.79 98 1004.6
20260507000516 53 174 1.7 4.3 0.03 0.85 0.79 98 1004.6
20260507000058 53 194 0.9 3.5 0.04 0.85 0.79 98 1004.8
20260506235515 53 174 0.0 3.5 0.04 0.96 0.79 98 1004.9
20260506235014 53 149 0.0 3.5 0.04 0.96 0.79 98 1005.0
20260506234548 53 168 0.9 3.5 0.06 0.96 0.79 98 1005.0
20260506234014 53 182 0.9 6.1 0.06 0.96 0.79 98 1005.0
20260506233514 53 185 0.9 6.1 0.09 0.96 0.79 98 1005.1
20260506233038 53 175 2.6 5.2 0.12 0.95 0.78 98 1005.2
20260506232513 53 173 0.9 7.8 0.12 0.95 0.78 98 1005.2
20260506232016 53 91 2.6 7.8 0.12 0.94 0.77 98 1005.3
20260506231544 53 179 2.6 7.0 0.12 0.94 0.77 98 1005.2
20260506231014 53 182 2.6 5.2 0.12 0.94 0.77 98 1005.2
20260506230510 53 167 1.7 4.3 0.11 0.93 0.76 98 1005.2
20260506230026 53 205 0.9 7.8 0.11 0.91 0.75 97 1005.3
20260506225516 53 180 2.6 7.8 0.09 0.95 0.74 97 1005.5
20260506225015 53 157 1.7 7.8 0.11 0.95 0.74 97 1005.3
20260506224531 53 193 2.6 10.4 0.09 0.94 0.72 97 1005.4
20260506224013 54 166 4.3 10.4 0.09 0.93 0.72 97 1005.4
20260506223512 54 182 2.6 6.1 0.08 0.90 0.69 97 1005.6
20260506223038 54 220 0.9 4.3 0.04 0.87 0.66 98 1005.5
20260506222513 54 197 1.7 4.3 0.06 0.87 0.66 98 1005.5
20260506222019 54 168 1.7 3.5 0.06 0.85 0.65 98 1005.6
20260506221547 54 182 0.9 6.1 0.06 0.85 0.65 98 1005.5
20260506221016 54 188 1.7 8.7 0.07 0.85 0.65 98 1005.4
20260506220512 54 191 2.6 8.7 0.08 0.85 0.65 98 1005.4
20260506220059 54 172 2.6 7.8 0.07 0.85 0.64 98 1005.5
20260506215516 54 200 2.6 10.4 0.08 0.85 0.64 98 1005.5
20260506215016 54 152 2.6 10.4 0.08 0.84 0.63 98 1005.2
20260506214546 54 201 3.5 9.6 0.09 0.84 0.63 98 1005.3
20260506214014 54 198 1.7 7.0 0.08 0.83 0.62 98 1005.7
20260506213509 54 188 0.9 8.7 0.09 0.82 0.61 98 1005.7
20260506213030 54 158 1.7 8.7 0.09 0.81 0.59 98 1005.6
20260506212515 54 176 1.7 6.1 0.09 0.79 0.58 98 1005.6
20260506212013 54 155 0.9 4.3 0.11 0.79 0.58 98 1005.6
20260506211547 54 178 2.6 6.1 0.12 0.79 0.58 98 1005.6
20260506211015 54 197 1.7 7.0 0.14 0.78 0.57 98 1005.6
20260506210516 54 205 2.6 6.1 0.16 0.78 0.57 98 1006.0
20260506210100 54 195 1.7 7.0 0.16 0.77 0.56 99 1005.9
20260506205517 54 221 2.6 7.0 0.18 0.77 0.56 98 1005.8
20260506205013 54 206 0.9 3.5 0.18 0.76 0.55 98 1005.7
20260506204550 54 180 0.9 5.2 0.19 0.75 0.53 99 1005.5
20260506204018 54 169 0.0 6.1 0.19 0.74 0.52 99 1005.6
20260506203516 54 171 2.6 6.1 0.19 0.72 0.52 99 1005.9
20260506203121 53 153 1.7 4.3 0.19 0.72 0.51 99 1006.0
20260506202518 53 331 0.0 0.0 0.19 0.71 0.50 98 1005.9
20260506202014 53 331 0.0 0.0 0.19 0.69 0.48 98 1005.9
20260506201552 53 331 0.0 0.0 0.17 0.66 0.45 98 1006.1
20260506201015 53 331 0.0 0.0 0.17 0.64 0.42 98 1006.0
20260506200510 52 331 0.0 0.0 0.16 0.62 0.41 98 1005.8
20260506200052 52 331 0.0 0.0 0.16 0.59 0.39 98 1005.9
20260506195516 52 331 0.0 0.0 0.14 0.58 0.37 98 1006.0
20260506195017 52 331 0.0 0.0 0.14 0.57 0.36 98 1006.1
20260506194552 51 331 0.0 0.0 0.16 0.56 0.35 98 1006.1
20260506194017 51 331 0.0 0.0 0.16 0.55 0.34 98 1006.0
20260506193513 51 331 0.0 0.0 0.16 0.53 0.33 97 1005.9
20260506193048 51 331 0.0 0.0 0.16 0.52 0.32 97 1005.9
20260506192516 51 331 0.0 0.0 0.16 0.52 0.31 97 1005.9
20260506192017 51 331 0.0 0.0 0.14 0.50 0.29 97 1006.0
20260506191559 51 331 0.0 0.0 0.14 0.48 0.26 97 1006.4
20260506191017 52 331 0.0 0.0 0.14 0.47 0.26 97 1006.6
20260506190515 52 331 0.0 0.0 0.13 0.45 0.25 98 1006.6
20260506190100 52 331 0.0 0.9 0.12 0.44 0.22 98 1006.8
20260506185515 52 331 0.0 0.9 0.11 0.42 0.22 97 1006.8
20260506185017 52 331 0.0 1.7 0.11 0.42 0.21 97 1006.8
20260506184601 52 331 0.9 2.6 0.09 0.39 0.19 97 1007.0
20260506184016 52 331 0.0 3.5 0.09 0.39 0.18 97 1006.6
20260506183516 52 331 1.7 3.5 0.08 0.38 0.17 97 1006.8
20260506183049 51 331 0.9 2.6 0.09 0.37 0.16 97 1006.8
20260506182516 51 331 0.9 2.6 0.08 0.36 0.14 97 1006.9
20260506182019 51 331 0.9 2.6 0.09 0.35 0.14 96 1006.7
20260506181556 51 331 0.9 2.6 0.08 0.34 0.13 96 1006.7
20260506181015 51 331 1.7 2.6 0.08 0.33 0.12 96 1006.7
20260506180516 51 331 0.9 3.5 0.08 0.33 0.12 96 1006.9
20260506180031 51 331 1.7 3.5 0.07 0.32 0.11 96 1007.0
20260506175517 51 330 1.7 4.3 0.07 0.32 0.11 96 1007.2
20260506175015 51 334 2.6 4.3 0.06 0.31 0.09 95 1007.3
20260506174604 52 331 3.5 4.3 0.06 0.31 0.09 95 1007.3
20260506174017 52 309 0.9 2.6 0.04 0.29 0.09 96 1007.5
20260506173517 52 309 0.9 2.6 0.04 0.29 0.08 96 1007.7
20260506173058 52 295 0.9 2.6 0.04 0.28 0.07 95 1008.0
20260506172515 52 295 1.7 2.6 0.03 0.26 0.06 95 1008.0
20260506172017 52 295 0.9 2.6 0.02 0.26 0.04 95 1008.0
20260506171529 52 341 0.9 2.6 0.01 0.25 0.04 95 1008.3
20260506171016 52 344 0.0 1.7 0.01 0.25 0.04 95 1008.3
20260506170516 52 344 0.0 5.2 0.01 0.25 0.04 95 1008.4
20260506170050 52 300 3.5 5.2 0.01 0.25 0.04 93 1008.7
20260506165510 53 332 0.0 1.7 0.01 0.25 0.04 95 1008.5
20260506165014 52 332 0.0 0.0 0.01 0.25 0.04 95 1008.3
20260506164557 52 332 0.0 0.0 0.01 0.25 0.04 93 1008.5
20260506164013 52 332 0.0 1.7 0.01 0.25 0.04 91 1008.7
20260506163515 52 332 0.9 1.7 0.00 0.24 0.03 90 1008.6
20260506163104 52 332 0.0 0.9 0.00 0.24 0.03 92 1008.7
20260506162517 52 332 0.0 1.7 0.00 0.24 0.03 91 1008.6
20260506162014 52 332 0.0 1.7 0.00 0.24 0.03 91 1008.7
20260506161557 52 332 0.0 2.6 0.00 0.24 0.03 90 1008.5
20260506161018 52 332 0.9 2.6 0.00 0.24 0.03 89 1009.1
20260506160515 52 332 0.0 2.6 0.00 0.24 0.03 89 1009.0
20260506160051 52 332 0.9 3.5 0.00 0.24 0.03 88 1009.3
20260506155516 52 332 2.6 4.3 0.00 0.24 0.03 88 1009.1
20260506155018 52 314 2.6 4.3 0.00 0.24 0.03 88 1009.1
20260506154558 53 314 1.7 3.5 0.00 0.24 0.03 89 1009.1
20260506154014 53 314 1.7 3.5 0.00 0.24 0.03 89 1009.1
20260506153516 53 295 1.7 2.6 0.00 0.24 0.03 89 1008.9
20260506153112 52 295 0.0 2.6 0.00 0.24 0.03 89 1008.9
20260506152518 52 295 0.0 2.6 0.00 0.24 0.03 88 1008.7
20260506152017 52 201 0.0 0.0 0.00 0.24 0.03 88 1008.7
20260506151558 52 201 0.0 0.0 0.00 0.24 0.03 88 1008.8
20260506151016 52 201 0.0 0.0 0.00 0.24 0.03 88 1008.9
20260506150513 52 201 0.0 2.6 0.00 0.24 0.03 87 1009.0
20260506150058 51 201 0.0 2.6 0.00 0.24 0.03 89 1009.1
20260506145514 51 201 0.9 1.7 0.00 0.24 0.03 90 1009.0
20260506145017 51 201 0.0 0.9 0.00 0.24 0.03 90 1009.1
20260506144551 51 201 0.0 0.9 0.00 0.24 0.03 90 1009.6
20260506144017 51 201 0.0 0.0 0.00 0.24 0.03 90 1009.5
20260506143519 51 201 0.0 0.0 0.00 0.24 0.03 90 1009.7
20260506143059 51 201 0.0 0.0 0.00 0.24 0.03 90 1009.7
20260506142517 52 201 0.0 0.0 0.00 0.24 0.03 91 1009.8
20260506142013 52 197 0.0 0.0 0.00 0.24 0.03 91 1009.9
20260506141554 52 197 0.0 0.0 0.00 0.24 0.03 88 1009.9
20260506141020 52 197 0.0 0.0 0.00 0.24 0.03 89 1009.9
20260506140517 52 197 0.0 0.0 0.00 0.24 0.03 90 1010.0
20260506140053 52 197 0.0 0.0 0.00 0.24 0.03 91 1010.1
20260506135518 52 197 0.0 0.0 0.00 0.24 0.03 89 1010.1
20260506135020 52 197 0.0 0.0 0.00 0.24 0.03 90 1010.1